Regional Weather Roundup
Issued by NWS

Home | Current Version | Previous Version | Graphics & Text | Print | Product List | Glossary On
Versions: 1 2 3 4 5 6 7 8 9 10 11 12 13 14 15 16 17 18 19 20 21 22 23 24 25 26 27 28 29 30 31 32 33 34 35 36 37 38 39 40 41 42 43 44 45 46 47 48 49 50
000
ASUS43 KMPX 210001
RWRMN
WEATHER ROUNDUP FOR MINNESOTA
NATIONAL WEATHER SERVICE TWIN CITIES/CHANHASSEN MN
600 PM CST SAT JAN 20 2018


NOTE: "FAIR" INDICATES FEW OR NO CLOUDS BELOW 12,000 FEET WITH NO
SIGNIFICANT WEATHER AND/OR OBSTRUCTIONS TO VISIBILITY. N/A MEANS
CURRENT SKY AND/OR WEATHER CONDITIONS ARE NOT AVAILABLE.

MNZ060>063-068>070-210100-
   Twin Cities Metro

CITY           SKY/WX    TMP DP  RH WIND       PRES   REMARKS
TWIN CITIES    MOCLDY    40  33  76 SW3       29.92R
6HR MIN TEMP:  38; 6HR MAX TEMP:  42;

ST PAUL        MOCLDY    37  32  82 CALM      29.93R
CRYSTAL        MOCLDY    37  29  72 SW3       29.90S
BLAINE         MOCLDY    39  32  75 CALM      29.91R
LAKEVILLE      FAIR      34  30  86 CALM      29.92R
EDEN PRAIRIE   FAIR      40  32  73 CALM      29.91R
6HR MIN TEMP:  37; 6HR MAX TEMP:  42;

SOUTH ST PAUL  FAIR      36  32  84 CALM      29.92R
LAKE ELMO      MOCLDY    36  32  87 CALM      29.92R
$$
MNZ001>005-007-008-013>017-022>024-027-028-210100-
   Northwest Minnesota

CITY           SKY/WX    TMP DP  RH WIND       PRES   REMARKS
BEMIDJI        FAIR      32  24  74 SW5       29.85R WCI  27
HALLOCK        FAIR      21  19  93 S7        29.83R WCI  13
ROSEAU         FAIR      28  23  80 S7        29.83S WCI  21
WARROAD        FAIR      30  27  86 SW5       29.83S WCI  25
CROOKSTON      FAIR      25  23  93 SW9       29.89R WCI  15
FOSSTON        FAIR      23  21  93 SW5       29.88R WCI  17
DETROIT LAKES  FAIR      32  28  86 CALM      29.90R
MOORHEAD       FAIR      34  30  86 W3        29.91R
PARK RAPIDS    FAIR      25  20  81 SW5       29.87R WCI  19
MAHNOMEN       FAIR      28  26  93 CALM      29.87R
$$
MNZ006-009>011-018-025>026-210100-
   North Central Minnesota

CITY           SKY/WX    TMP DP  RH WIND       PRES   REMARKS
BAUDETTE       FAIR      30  24  78 SW5       29.82R WCI  25
FLAG ISLAND    FAIR      21  19  93 S7        29.81R WCI  13
INTL FALLS     FAIR      24  20  84 CALM      29.83R
6HR MIN TEMP:  23; 6HR MAX TEMP:  37;

WASKISH        FAIR      30  25  80 SW3       29.85R
BIG FORK       FAIR      28  25  86 CALM      29.85R
LONGVILLE      FAIR      28  25  86 CALM      29.86R
GRAND RAPIDS   FAIR      26  23  88 SW3       29.88R
CRANE LAKE     FAIR      25  25 100 CALM      29.85R
ORR            FAIR      28  25  86 CALM      29.82R
COOK           FAIR      28  25  86 CALM      29.84R
WALKER         FAIR      31  25  77 SW3       29.86R
$$
MNZ012-019>021-037-210100-
   Northeast Minnesota

CITY           SKY/WX    TMP DP  RH WIND       PRES   REMARKS
DULUTH         FAIR      36  27  69 NW7       29.85R
6HR MIN TEMP:  36; 6HR MAX TEMP:  41;

HIBBING        FAIR      24  22  91 CALM      29.84R
EVELETH        FAIR      26  23  90 CALM      29.86R
DULUTH HARBOR  CLOUDY    36  30  80 W7        29.88R
TWO HARBORS    FAIR      36  28  75 W5        29.84R
SILVER BAY     FAIR      30  28  93 CALM      29.84R
GRAND MARAIS     N/A     33  32  96 CALM      29.87R
G MARAIS ARPRT FAIR      28  25  86 CALM      29.84R
$$
MNZ029>031-032-039>041-046>048-054>057-064-210100-
   West Central Minnesota

CITY           SKY/WX    TMP DP  RH WIND       PRES   REMARKS
FERGUS FALLS   FAIR      36  30  80 CALM      29.89R
WHEATON        CLOUDY    39  28  65 CALM      29.92S
MORRIS         PTCLDY    37  28  70 N6        29.89S
ALEXANDRIA     FAIR      33  29  85 W5        29.90R WCI  29
ELBOW LAKE     FAIR      32  30  92 CALM      29.91R
WADENA         FAIR      32  27  80 W6        29.89R WCI  26
GLENWOOD       FAIR      34  30  86 SW3       29.91R
APPLETON       CLOUDY    39  30  70 CALM      29.91R
BENSON         CLOUDY    37  30  75 CALM      29.92R
ORTONVILLE     MOCLDY    39  28  65 W5        29.91R
MADISON        CLOUDY    43  30  61 CALM      29.91R
WILLMAR        FAIR      37  30  75 CALM      29.93R
$$
MNZ033>034-036-042>043-049>051-058-059-210100-
   Central Minnesota

CITY           SKY/WX    TMP DP  RH WIND       PRES   REMARKS
ST CLOUD       FAIR      35  30  82 W3        29.90R
6HR MIN TEMP:  34; 6HR MAX TEMP:  38;

SAUK CENTRE      N/A     35  31  85 SW3       29.90R
PAYNESVILLE    FAIR      34  32  90 CALM      29.91S
AITKIN         FAIR      36  27  69 SW5       29.86S
PINE RIVER     FAIR      30  25  80 CALM      29.91R
BRAINERD       FAIR      37  26  64 W8        29.89R
STAPLES        FAIR      32  25  74 CALM      29.89R
LONG PRAIRIE   FAIR      36  28  75 CALM      29.90R
LITTLE FALLS   FAIR      34  27  75 CALM      29.90R
LITCHFIELD     FAIR      37  32  81 CALM      29.91R
BUFFALO        MOCLDY    38  30  72 W5        29.92R
MAPLE LAKE     CLOUDY    37  32  81 MISG      29.91R
HUTCHINSON     FAIR      37  32  84 CALM      29.92R
$$
MNZ037-044-045-052-053-210100-
   East Central Minnesota

CITY           SKY/WX    TMP DP  RH WIND       PRES   REMARKS
PRINCETON      FAIR      37  30  75 CALM      29.91R
MORA           FAIR      32  28  86 CALM      29.91R
CAMBRIDGE        N/A     36  27  69 CALM      29.91R
RUSH CITY      FAIR      32  28  88 S3        29.90S
MOOSE LAKE     FAIR      36  27  69 CALM      29.86R
HINCKLEY       FAIR      36  30  80 S3        29.89R
CLOQUET        FAIR      37  27  65 CALM      29.86R
MCGREGOR       FAIR      34  30  86 S3        29.87S
$$
MNZ071>073-080-081-089-090-097-098-210100-
   Southwest Minnesota

CITY           SKY/WX    TMP DP  RH WIND       PRES   REMARKS
MONTEVIDEO     CLOUDY    39  28  65 CALM      29.92R
GRANITE FALLS  CLOUDY    42  32  68 CALM      29.93R
CANBY          CLOUDY    41  29  61 CALM      29.92R
MARSHALL       CLOUDY    40  29  64 CALM      29.92R
REDWOOD FALLS  CLOUDY    39  31  72 CALM      29.91R
OLIVIA         CLOUDY    36  32  87 S3        29.92R
PIPESTONE      CLOUDY    36  32  87 NE3       29.89S
WINDOM         PTCLDY    36  19  51 CALM      29.90S
WORTHINGTON    CLOUDY    38  33  82 NE6       29.91
JACKSON        CLOUDY    36  32  87 N3        29.91R
TRACY          CLOUDY    39  31  72 CALM      29.91S
SLAYTON        CLOUDY    37  31  79 N5        29.90S
$$
MNZ065>067-074>077-082>085-091>093-210100-
   South Central Minnesota

CITY           SKY/WX    TMP DP  RH WIND       PRES   REMARKS
MANKATO        FAIR      39  32  76 CALM      29.92R
NEW ULM        CLOUDY    37  30  75 CALM      29.92R
ST JAMES       CLOUDY    34  30  86 CALM      29.93R
FAIRMONT       CLOUDY    36  33  89 NE3       29.92R
FARIBAULT      FAIR      34  30  86 CALM      29.92S
OWATONNA       FAIR      36  32  87 CALM      29.91S
WASECA         FAIR      34  32  93 CALM      29.92R
ALBERT LEA     FAIR      36  34  93 N3        29.90S
$$
MNZ078>079-086>088-094>096-210100-
   Southeast Minnesota

CITY           SKY/WX    TMP DP  RH WIND       PRES   REMARKS
ROCHESTER      FAIR      37  32  82 N6        29.91R
6HR MIN TEMP:  35; 6HR MAX TEMP:  42;

RED WING       FAIR      34  27  75 CALM      29.92R
STANTON        FAIR      33  31  89 S5        29.91R WCI  29
DODGE CENTER   FAIR      36  30  80 CALM      29.91R
WINONA         FAIR      34  32  93 CALM      29.92S
AUSTIN         FAIR      36  30  80 CALM      29.90S
PRESTON        FAIR      36  31  82 CALM      29.91S
$$
ABBREVIATIONS USED IN REMARKS
   TC - TEMPERATURES IN CELSIUS
  WCI - WIND CHILL INDEX
   HX - HEAT INDEX
  VSB - VISIBILITY
$$



USA.gov is the U.S. government's official web portal to all federal, state and local government web resources and services.